Météo par heure à Dunkerque

Ce jour, 16 Mai, Dimanche

Heure Température Précipitation Vent Pression Humidité
00:00 +6°C° 0 mm 7 m/s 750 mmHg 93%
01:00 +6°C° 0.1 mm 7 m/s 750 mmHg 93%
02:00 +7°C° 0.1 mm 6 m/s 750 mmHg 94%
03:00 +7°C° 0.1 mm 6 m/s 750 mmHg 94%
04:00 +7°C° 0.1 mm 6 m/s 750 mmHg 92%
05:00 +8°C° 0.1 mm 6 m/s 750 mmHg 91%
06:00 +8°C° 0 mm 6 m/s 750 mmHg 89%
07:00 +9°C° 0.2 mm 6 m/s 750 mmHg 84%
08:00 +10°C° 0.2 mm 6 m/s 750 mmHg 78%
09:00 +11°C° 0.2 mm 7 m/s 750 mmHg 73%
10:00 +12°C° 0.2 mm 7 m/s 750 mmHg 71%
11:00 +12°C° 0.2 mm 7 m/s 750 mmHg 68%
12:00 +14°C° 0.2 mm 7 m/s 750 mmHg 66%
13:00 +14°C° 0.1 mm 7 m/s 750 mmHg 64%
14:00 +14°C° 0.1 mm 6 m/s 749 mmHg 63%
15:00 +14°C° 0.1 mm 6 m/s 749 mmHg 61%
16:00 +13°C° 0.1 mm 6 m/s 749 mmHg 68%
17:00 +13°C° 0.1 mm 6 m/s 749 mmHg 74%
18:00 +12°C° 0.1 mm 5 m/s 748 mmHg 80%
19:00 +10°C° 0.1 mm 5 m/s 749 mmHg 85%
20:00 +9°C° 0.1 mm 5 m/s 749 mmHg 89%
21:00 +8°C° 0.1 mm 5 m/s 749 mmHg 94%
22:00 +8°C° 0.1 mm 6 m/s 749 mmHg 93%
23:00 +9°C° 0.1 mm 7 m/s 749 mmHg 92%

Demain, 17 Mai, Lundi

Heure Température Précipitation Vent Pression Humidité
00:00 +9°C° 0.1 mm 7 m/s 749 mmHg 91%
01:00 +9°C° 0.3 mm 7 m/s 748 mmHg 91%
02:00 +9°C° 0.3 mm 7 m/s 748 mmHg 92%
03:00 +9°C° 0.3 mm 7 m/s 748 mmHg 92%
04:00 +9°C° 0.2 mm 7 m/s 749 mmHg 93%
05:00 +9°C° 0.2 mm 7 m/s 749 mmHg 93%
06:00 +9°C° 0.2 mm 7 m/s 750 mmHg 93%
07:00 +10°C° 0.1 mm 7 m/s 751 mmHg 89%
08:00 +11°C° 0.1 mm 7 m/s 752 mmHg 85%
09:00 +11°C° 0.1 mm 7 m/s 752 mmHg 80%
10:00 +13°C° 0.2 mm 6 m/s 753 mmHg 77%
11:00 +14°C° 0.2 mm 6 m/s 753 mmHg 74%
12:00 +15°C° 0.2 mm 6 m/s 754 mmHg 72%
13:00 +15°C° 0.3 mm 6 m/s 754 mmHg 72%
14:00 +15°C° 0.3 mm 6 m/s 754 mmHg 72%
15:00 +15°C° 0.3 mm 6 m/s 755 mmHg 72%
16:00 +14°C° 0.2 mm 6 m/s 755 mmHg 75%
17:00 +12°C° 0.2 mm 7 m/s 755 mmHg 78%
18:00 +12°C° 0.2 mm 7 m/s 755 mmHg 82%
19:00 +11°C° 0.3 mm 7 m/s 755 mmHg 86%
20:00 +10°C° 0.3 mm 6 m/s 755 mmHg 90%
21:00 +9°C° 0.3 mm 6 m/s 755 mmHg 94%
22:00 +9°C° 0.4 mm 6 m/s 756 mmHg 94%
23:00 +9°C° 0.4 mm 5 m/s 756 mmHg 94%

Après-demain, 18 Mai, Mardi

Heure Température Précipitation Vent Pression Humidité
00:00 +9°C° 0.4 mm 5 m/s 756 mmHg 94%
01:00 +8°C° 0.1 mm 5 m/s 756 mmHg 94%
02:00 +8°C° 0.1 mm 5 m/s 756 mmHg 94%
03:00 +8°C° 0.1 mm 5 m/s 757 mmHg 94%
04:00 +8°C° 0 mm 5 m/s 757 mmHg 93%
05:00 +8°C° 0 mm 5 m/s 757 mmHg 91%
06:00 +9°C° 0 mm 5 m/s 758 mmHg 89%
07:00 +10°C° 0 mm 5 m/s 758 mmHg 82%
08:00 +12°C° 0 mm 5 m/s 759 mmHg 75%
09:00 +13°C° 0 mm 5 m/s 759 mmHg 68%
10:00 +13°C° 0.1 mm 5 m/s 759 mmHg 67%
11:00 +14°C° 0.1 mm 5 m/s 759 mmHg 65%
12:00 +14°C° 0.1 mm 5 m/s 760 mmHg 63%
13:00 +14°C° 0.3 mm 6 m/s 760 mmHg 64%
14:00 +14°C° 0.3 mm 7 m/s 760 mmHg 66%
15:00 +14°C° 0.3 mm 7 m/s 760 mmHg 68%
16:00 +12°C° 0.3 mm 7 m/s 760 mmHg 72%
17:00 +11°C° 0.3 mm 7 m/s 760 mmHg 76%
18:00 +10°C° 0.3 mm 7 m/s 760 mmHg 80%
19:00 +10°C° 0.1 mm 6 m/s 761 mmHg 83%
20:00 +9°C° 0.1 mm 6 m/s 761 mmHg 85%
21:00 +8°C° 0.1 mm 6 m/s 761 mmHg 88%
22:00 +8°C° 0 mm 6 m/s 761 mmHg 89%
23:00 +8°C° 0 mm 6 m/s 761 mmHg 90%

19 Mai, Mercredi

Heure Température Précipitation Vent Pression Humidité
00:00 +7°C° 0 mm 6 m/s 761 mmHg 91%
01:00 +7°C° 0 mm 6 m/s 761 mmHg 91%
02:00 +7°C° 0 mm 5 m/s 761 mmHg 92%
03:00 +7°C° 0 mm 5 m/s 761 mmHg 93%
04:00 +11°C° 0 mm 3 m/s 762 mmHg 80%
05:00 +11°C° 0 mm 4 m/s 762 mmHg 85%
06:00 +10°C° 0 mm 4 m/s 762 mmHg 89%
07:00 +10°C° 0.2 mm 3 m/s 761 mmHg 84%
08:00 +11°C° 0.2 mm 3 m/s 761 mmHg 80%
09:00 +12°C° 0.2 mm 3 m/s 761 mmHg 76%
10:00 +13°C° 0.2 mm 4 m/s 763 mmHg 70%
11:00 +14°C° 0.2 mm 4 m/s 763 mmHg 68%
12:00 +14°C° 0.2 mm 5 m/s 764 mmHg 66%
13:00 +11°C° 0.1 mm 4 m/s 763 mmHg 82%
14:00 +12°C° 0.1 mm 4 m/s 763 mmHg 75%
15:00 +14°C° 0.1 mm 3 m/s 763 mmHg 68%
16:00 +13°C° 0 mm 3 m/s 763 mmHg 69%
17:00 +13°C° 0 mm 3 m/s 763 mmHg 70%
18:00 +12°C° 0 mm 3 m/s 764 mmHg 72%
19:00 +11°C° 0 mm 3 m/s 764 mmHg 77%
20:00 +10°C° 0 mm 3 m/s 765 mmHg 82%
21:00 +8°C° 0 mm 4 m/s 765 mmHg 87%
22:00 +8°C° 0 mm 4 m/s 765 mmHg 88%
23:00 +8°C° 0 mm 4 m/s 766 mmHg 89%

20 Mai, Jeudi

Heure Température Précipitation Vent Pression Humidité
00:00 +8°C° 0 mm 5 m/s 766 mmHg 89%
01:00 +7°C° 0 mm 5 m/s 766 mmHg 90%
02:00 +7°C° 0 mm 5 m/s 766 mmHg 91%
03:00 +7°C° 0 mm 5 m/s 767 mmHg 91%
04:00 +7°C° 0 mm 5 m/s 767 mmHg 89%
05:00 +8°C° 0 mm 5 m/s 767 mmHg 86%
06:00 +10°C° 0 mm 4 m/s 768 mmHg 83%
07:00 +10°C° 0 mm 5 m/s 768 mmHg 77%
08:00 +12°C° 0 mm 5 m/s 768 mmHg 71%
09:00 +13°C° 0 mm 5 m/s 768 mmHg 65%
10:00 +14°C° 0 mm 5 m/s 768 mmHg 63%
11:00 +14°C° 0 mm 6 m/s 768 mmHg 60%
12:00 +15°C° 0 mm 6 m/s 768 mmHg 58%
13:00 +15°C° 0 mm 7 m/s 768 mmHg 61%
14:00 +15°C° 0 mm 7 m/s 767 mmHg 63%
15:00 +15°C° 0 mm 8 m/s 767 mmHg 66%
16:00 +13°C° 0 mm 8 m/s 767 mmHg 69%
17:00 +12°C° 0 mm 8 m/s 767 mmHg 73%
18:00 +11°C° 0 mm 7 m/s 767 mmHg 76%
19:00 +10°C° 0 mm 7 m/s 766 mmHg 76%
20:00 +10°C° 0 mm 6 m/s 766 mmHg 75%
21:00 +9°C° 0 mm 6 m/s 766 mmHg 75%
22:00 +9°C° 0 mm 5 m/s 765 mmHg 75%
23:00 +9°C° 0 mm 5 m/s 765 mmHg 75%

21 Mai, Vendredi

Heure Température Précipitation Vent Pression Humidité
00:00 +8°C° 0 mm 5 m/s 764 mmHg 75%
01:00 +8°C° 0 mm 5 m/s 764 mmHg 74%
02:00 +8°C° 0 mm 4 m/s 763 mmHg 73%
03:00 +8°C° 0 mm 4 m/s 762 mmHg 72%
04:00 +9°C° 0 mm 5 m/s 761 mmHg 73%
05:00 +9°C° 0 mm 6 m/s 761 mmHg 74%
06:00 +10°C° 0 mm 6 m/s 760 mmHg 75%
07:00 +11°C° 0 mm 7 m/s 759 mmHg 70%
08:00 +11°C° 0 mm 8 m/s 759 mmHg 66%
09:00 +12°C° 0 mm 8 m/s 759 mmHg 61%
10:00 +12°C° 0 mm 8 m/s 758 mmHg 62%
11:00 +12°C° 0 mm 8 m/s 758 mmHg 64%
12:00 +11°C° 0 mm 8 m/s 758 mmHg 65%
13:00 +12°C° 0 mm 9 m/s 757 mmHg 67%
14:00 +12°C° 0 mm 9 m/s 756 mmHg 68%
15:00 +13°C° 0 mm 9 m/s 756 mmHg 69%
16:00 +12°C° 0.1 mm 9 m/s 755 mmHg 71%
17:00 +12°C° 0.1 mm 9 m/s 755 mmHg 73%
18:00 +12°C° 0.1 mm 9 m/s 755 mmHg 74%
19:00 +11°C° 0 mm 10 m/s 755 mmHg 77%
20:00 +11°C° 0 mm 10 m/s 755 mmHg 79%
21:00 +9°C° 0 mm 10 m/s 755 mmHg 82%
22:00 +8°C° 0.2 mm 11 m/s 754 mmHg 84%
23:00 +8°C° 0.2 mm 11 m/s 754 mmHg 85%
Voir plus

Nous avons besoin de votre consentement

Meteoprog et ses fournisseurs de services peuvent stocker et accéder à des données personnelles telles que des cookies, des identifiants d'appareils ou d'autres technologies similaires sur votre appareil et traiter ces données pour personnaliser le contenu et les publicités, ainsi que pour fournir des fonctionnalités de médias sociaux et analyser le trafic.

  • Stocker et/ou accéder à des informations sur votre appareil

    Des cookies, des identifiants d'appareils ou d'autres informations peuvent être stockés ou accessibles sur votre appareil aux fins indiquées ci-dessus.

  • Annonces et contenus personnalisés, mesure des annonces et des contenus, connaissance de l'audience et développement de produits

    Les annonces et le contenu peuvent être personnalisés en fonction d'un profil. D'autres données peuvent être ajoutées pour mieux personnaliser les annonces et le contenu. Les performances des publicités et du contenu peuvent être mesurées. Il est possible d'obtenir des informations sur le public qui a vu les publicités et le contenu. Ces données peuvent être utilisées pour développer ou améliorer l'expérience de l'utilisateur, les systèmes et les logiciels.

En cliquant sur "J'accepte", vous autorisez l'utilisation de cookies, des identifiants d'appareils, des balises web ou d'autres technologies similaires. Vos paramètres peuvent être modifiés dans le navigateur de votre appareil.

Dans certains cas, des intérêts légitimes peuvent être invoqués plutôt qu'un consentement. Vous pouvez en savoir plus à ce sujet dans notre Politique de confidentialité et de cookies.